[[{"header":{"parameterUnit":"m.s-1","parameterCategory":1,"la1":30.2991,"la2":30.254,"lo1":-89.0895,"lo2":-89.0444,"dy":0.0017,"dx":0.0017,"nx":28,"ny":28,"refTime":"2025-03-28T03:00:00:Z","depth":0,"parameterNumber":2,"parameterNumberName":"U-component_of_WINDS"},"data":[0,0,0,0,0,0,0,0,0,0,0,0,0,0,0,0,0,0,0,0,0,0,0,0,0,0,0,0,0,0,0,0,0,0,0,0,0,0,0,0,0,0,0,0,0,0,0,0,0,0,0,0,0,0,0,0,0,0,-5.4419,-5.442,0,-5.4532,-5.4533,-5.4535,-5.4433,-5.4429,-5.4425,-5.4421,-5.4539,-5.4546,-5.4553,0,0,0,0,0,0,0,0,0,0,0,0,0,-5.4118,-5.4124,-5.4419,-5.442,-5.4422,-5.4532,-5.4533,-5.4535,-5.4434,-5.4429,-5.4424,-5.4419,-5.4537,-5.4545,-5.4554,0,0,0,0,0,0,0,0,0,0,0,0,0,-5.4242,-5.4126,-5.4418,-5.4384,-5.4382,-5.4532,-5.4534,-5.4535,-5.4435,-5.4429,-5.4423,-5.4417,-5.4534,-5.4545,-5.4555,-5.4744,0,0,-5.4587,-5.4592,0,0,0,0,0,0,0,0,-5.4235,-5.4253,-5.4388,-5.4387,-5.4385,-5.4462,-5.4471,-5.4606,-5.4437,-5.4415,-5.4421,-5.4414,-5.4519,-5.453,-5.4565,-5.475,-5.4755,-5.4588,-5.4594,-5.4599,-5.4602,0,0,0,0,0,0,0,-5.4227,-5.4248,-5.4464,-5.439,-5.4388,-5.4365,-5.4375,-5.4496,-5.4501,-5.4417,-5.4409,-5.4424,-5.4517,-5.4555,-5.4567,-5.4757,-5.4588,-5.4597,-5.4604,-5.4608,-5.5104,-5.511,0,0,0,0,0,0,-5.4221,-5.4241,-5.446,-5.4467,-5.4293,-5.4375,-5.4387,-5.4444,-5.4499,-5.4501,-5.4429,-5.4419,-5.454,-5.4555,-5.4571,-5.4796,-5.4599,-5.4609,-5.4615,-5.5097,-5.5105,-5.5112,0,0,0,0,0,0,-5.4215,-5.4242,-5.4455,-5.4352,-5.4378,-5.4387,-5.4451,-5.4449,-5.4487,-5.4509,-5.4509,-5.4467,-5.4536,-5.4556,-5.4702,-5.4799,-5.4613,-5.4623,-5.5089,-5.5099,-5.5109,-5.5248,0,0,0,0,0,0,-5.4207,-5.424,-5.4311,-5.4355,-5.4384,-5.4584,-5.4457,-5.4456,-5.4506,-5.4493,-5.4545,-5.4547,-5.4533,-5.4687,-5.4713,-5.481,-5.4631,-5.508,-5.5093,-5.5105,-5.5235,-5.5262,-5.5285,0,0,0,0,0,-5.4197,-5.4346,-5.4315,-5.4342,-5.4472,-5.4589,-5.4606,-5.4586,-5.4514,-5.4586,-5.46,-5.4545,-5.4785,-5.4703,-5.4731,-5.4833,-5.5074,-5.509,-5.5105,-5.5224,-5.5257,-5.5285,0,0,0,0,0,0,-5.4314,-5.4351,-5.4317,-5.4485,-5.4535,-5.4572,-5.4662,-5.4621,-5.4693,-5.4678,-5.4651,-5.4664,-5.4818,-5.484,-5.4748,-5.502,-5.4918,-5.494,-5.4999,-5.503,-5.5055,-5.5045,-5.464,0,0,0,0,0,-5.4359,-5.445,-5.4478,-5.4624,-5.4651,-5.4653,-5.4703,-5.4683,-5.4734,-5.4755,-5.4779,-5.4831,-5.4918,-5.4976,-5.5057,-5.5239,-5.5249,-5.5323,-5.5348,-5.5369,-5.5387,-5.5485,-5.5519,-5.5163,-5.5163,-5.5163,0,0,-5.4454,-5.4486,-5.4545,-5.4648,-5.4684,-5.478,-5.4671,-5.4777,-5.4848,-5.4771,-5.4909,-5.493,-5.4987,-5.5151,-5.5225,-5.5175,-5.5488,-5.5388,-5.5404,-5.5412,-5.5505,-5.5538,-5.5568,-5.5174,-5.5172,-5.517,0,0,-5.4674,-5.4708,-5.4833,-5.4872,-5.4928,-5.4929,-5.4959,-5.5004,-5.5014,-5.5153,-5.5097,-5.5183,-5.5333,-5.5375,-5.5417,-5.5657,-5.561,-5.5685,-5.5815,-5.5911,-5.5939,-5.5964,-5.6049,-5.608,-5.5704,-5.5704,-5.5704,0,-5.4785,-5.4926,-5.4902,-5.5013,-5.506,-5.4996,-5.5123,-5.5162,-5.5243,-5.5277,-5.522,-5.5408,-5.5442,-5.5615,-5.5674,-5.5711,-5.5745,-5.5677,-5.5937,-5.5962,-5.5984,-5.6065,-5.6098,-5.5713,-5.5712,-5.5711,-5.571,0,-5.5059,-5.5158,-5.5252,-5.5331,-5.539,-5.5508,-5.5504,-5.5566,-5.5543,-5.555,-5.5694,-5.5732,-5.582,-5.5861,-5.5839,-5.6033,-5.5999,-5.5941,-5.5837,-5.6027,-5.6103,-5.6134,-5.5725,-5.5722,-5.5719,-5.5717,0,0,-5.5353,-5.5419,-5.5454,-5.549,-5.5549,-5.5625,-5.5742,-5.5828,-5.5882,-5.5941,-5.6038,-5.6168,-5.6114,-5.6162,-5.6144,-5.6229,-5.6417,-5.616,-5.6161,-5.6205,-5.6633,-5.6676,-5.6712,-5.6387,-5.6393,-5.6398,-5.6628,0,-5.5575,-5.5775,-5.5759,-5.5949,-5.6041,-5.5983,-5.6084,-5.6133,-5.6144,-5.6224,-5.6237,-5.6329,-5.6251,-5.6279,-5.6361,-5.6377,-5.6502,-5.6361,-5.6477,-5.6482,-5.6463,-5.6751,-5.6796,-5.7011,-5.6657,-5.6662,-5.6666,0,-5.5859,-5.5928,-5.6127,-5.6174,-5.6212,-5.6303,-5.6381,-5.6459,-5.6513,-5.6515,-5.657,-5.6539,-5.6658,-5.6554,-5.6717,-5.6621,-5.6669,-5.6685,-5.6693,-5.6701,-5.6584,-5.6766,-5.7079,-5.7111,-5.6713,-5.6709,-5.6705,0,-5.6052,-5.6195,-5.6333,-5.6366,-5.6423,-5.6489,-5.6517,-5.6565,-5.6618,-5.6687,-5.6722,-5.6805,-5.6849,-5.6915,-5.6908,-5.6833,-5.7075,-5.697,-5.708,-5.708,-5.7131,-5.7127,-5.7454,-5.7165,-5.7165,-5.7164,-5.7163,0,-5.63,-5.6424,-5.642,-5.6505,-5.6643,-5.6625,-5.6762,-5.6782,-5.6826,-5.6914,-5.6871,-5.6955,-5.6941,-5.7026,-5.7022,-5.7158,-5.7179,-5.7185,-5.7182,-5.7187,-5.7187,-5.7216,-5.7201,-5.7173,-5.7171,-5.7169,-5.7168,0,-5.6538,-5.654,-5.6687,-5.673,-5.6745,-5.6844,-5.6882,-5.6963,-5.6971,-5.7084,-5.7109,-5.7123,-5.7221,-5.7221,-5.7333,-5.733,-5.7497,-5.7478,-5.7478,-5.7473,-5.7583,-5.7572,-5.7939,-5.7986,-5.7668,-5.7671,-5.7674,0,-5.6695,-5.6789,-5.6843,-5.6899,-5.693,-5.7021,-5.7075,-5.7063,-5.7121,-5.7192,-5.7264,-5.7358,-5.7432,-5.7591,-5.7612,-5.7698,-5.7679,-5.7802,-5.7692,-5.7695,-5.768,-5.7673,-5.7683,-5.7823,-5.7826,-5.7829,-5.7832,0,-5.6972,-5.697,-5.7049,-5.7131,-5.7197,-5.726,-5.7318,-5.7367,-5.7361,-5.743,-5.7529,-5.7586,-5.7701,-5.7795,-5.7879,-5.7908,-5.787,-5.7867,-5.7896,-5.7902,-5.7898,-5.79,-5.7535,-5.7858,-5.7855,-5.7853,-5.7852,-5.7851,-5.7173,-5.7254,-5.7306,-5.7396,-5.7439,-5.7496,-5.7574,-5.7593,-5.7675,-5.7767,-5.7755,-5.7866,-5.792,-5.8028,-5.8066,-5.8153,-5.811,-5.8153,-5.8164,-5.8174,-5.8185,-5.7886,-5.8168,-5.8168,-5.8167,-5.8166,-5.8166,0,-5.7447,-5.7478,-5.7562,-5.7645,-5.7717,-5.7676,-5.7739,-5.7802,-5.79,-5.7954,-5.8028,-5.8143,-5.8235,-5.8264,-5.8353,-5.8417,-5.8402,-5.8441,-5.8435,-5.8442,-5.8219,-5.8184,-5.8452,-5.8452,-5.8452,-5.8452,-5.8452,-5.8452,-5.7598,-5.7733,-5.7737,-5.7894,-5.7924,-5.8032,-5.8072,-5.8124,-5.8167,-5.8297,-5.8373,-5.8391,-5.8436,-5.8528,-5.8611,-5.8617,-5.8651,-5.8697,-5.8697,-5.8487,-5.8458,-5.8431,-5.8397,-5.8705,-5.8706,-5.8912,-5.8914,-5.8915]},{"header":{"parameterUnit":"m.s-1","parameterCategory":1,"la1":30.2991,"la2":30.254,"lo1":-89.0895,"lo2":-89.0444,"dy":0.0017,"dx":0.0017,"nx":28,"ny":28,"refTime":"2025-03-28T03:00:00:Z","depth":0,"parameterNumber":3,"parameterNumberName":"V-component_of_WINDS"},"data":[0,0,0,0,0,0,0,0,0,0,0,0,0,0,0,0,0,0,0,0,0,0,0,0,0,0,0,0,0,0,0,0,0,0,0,0,0,0,0,0,0,0,0,0,0,0,0,0,0,0,0,0,0,0,0,0,0,0,1.1059,1.1059,0,1.1096,1.1096,1.1096,1.1088,1.1088,1.1087,1.1086,1.1123,1.1125,1.1126,0,0,0,0,0,0,0,0,0,0,0,0,0,1.0983,1.0984,1.1059,1.1059,1.106,1.1095,1.1096,1.1096,1.1089,1.1088,1.1087,1.1086,1.1123,1.1125,1.1126,0,0,0,0,0,0,0,0,0,0,0,0,0,1.1017,1.0985,1.1059,1.106,1.1061,1.1095,1.1096,1.1097,1.1089,1.1088,1.1087,1.1086,1.1122,1.1124,1.1127,1.1162,0,0,1.1134,1.1135,0,0,0,0,0,0,0,0,1.1015,1.102,1.1059,1.106,1.1061,1.1086,1.1083,1.1119,1.1089,1.1078,1.1086,1.1085,1.1112,1.1115,1.1124,1.1164,1.1165,1.1134,1.1136,1.1137,1.1138,0,0,0,0,0,0,0,1.1013,1.1019,1.1073,1.106,1.1061,1.1059,1.1063,1.1089,1.11,1.1079,1.1078,1.1083,1.1112,1.1122,1.1125,1.1166,1.1134,1.1136,1.1138,1.1139,1.124,1.1241,0,0,0,0,0,0,1.101,1.1017,1.1072,1.1074,1.1035,1.1062,1.1066,1.1079,1.11,1.1102,1.1084,1.1082,1.1118,1.1122,1.1126,1.1171,1.1137,1.1139,1.114,1.1238,1.124,1.1241,0,0,0,0,0,0,1.1009,1.1015,1.1071,1.1045,1.1052,1.1064,1.1079,1.108,1.109,1.1103,1.1105,1.1092,1.1117,1.1123,1.1154,1.1172,1.114,1.1142,1.1237,1.1239,1.1241,1.1259,0,0,0,0,0,0,1.1006,1.1015,1.1028,1.1046,1.1054,1.1098,1.108,1.1082,1.1095,1.1093,1.1112,1.1114,1.1117,1.115,1.1156,1.1174,1.1144,1.1235,1.1238,1.124,1.1257,1.1261,1.1265,0,0,0,0,0,1.1004,1.1031,1.1028,1.1035,1.107,1.1099,1.1103,1.1107,1.1096,1.111,1.1119,1.1113,1.1169,1.1154,1.116,1.1179,1.1234,1.1237,1.124,1.1255,1.126,1.1265,0,0,0,0,0,0,1.1013,1.1033,1.1031,1.1064,1.108,1.1097,1.1114,1.1112,1.1131,1.1128,1.1132,1.1136,1.1169,1.1177,1.116,1.1216,1.12,1.1204,1.1209,1.1215,1.1219,1.1216,1.1146,0,0,0,0,0,1.1019,1.1041,1.1057,1.1085,1.1093,1.1102,1.1115,1.1117,1.1133,1.1139,1.115,1.1166,1.1188,1.1202,1.1222,1.1258,1.1263,1.1275,1.1279,1.1282,1.1286,1.1308,1.1314,1.125,1.125,1.125,0,0,1.1032,1.1045,1.1058,1.1087,1.1099,1.1122,1.1108,1.1131,1.1149,1.1143,1.1173,1.1182,1.1201,1.1235,1.1251,1.1243,1.1305,1.1286,1.1288,1.129,1.1311,1.1318,1.1323,1.1252,1.1252,1.1251,0,0,1.1067,1.1078,1.1104,1.1117,1.1137,1.1144,1.115,1.1168,1.1174,1.1205,1.1202,1.1223,1.1259,1.1273,1.1284,1.1328,1.1324,1.1334,1.1355,1.1377,1.1382,1.1387,1.1404,1.1409,1.1338,1.1338,1.1338,0,1.1079,1.1113,1.1117,1.1143,1.1156,1.1153,1.118,1.1193,1.1217,1.1227,1.1218,1.1266,1.1277,1.1316,1.1327,1.1336,1.1345,1.1332,1.1381,1.1386,1.139,1.1406,1.1412,1.1339,1.1339,1.1339,1.1339,0,1.1129,1.1153,1.1171,1.1197,1.1213,1.1238,1.1247,1.1263,1.1264,1.1272,1.1305,1.132,1.1344,1.1353,1.1354,1.1393,1.1388,1.138,1.1364,1.1397,1.1413,1.1419,1.1341,1.134,1.134,1.134,0,0,1.1169,1.1199,1.1206,1.1218,1.1241,1.1259,1.1286,1.1311,1.1325,1.1343,1.1366,1.1398,1.1392,1.1405,1.1408,1.1426,1.1462,1.1417,1.1417,1.1426,1.1508,1.1515,1.1522,1.146,1.1461,1.1462,1.1507,0,1.1207,1.1254,1.126,1.1302,1.1325,1.1324,1.1347,1.1364,1.1373,1.1394,1.1403,1.1427,1.1416,1.1424,1.1443,1.1454,1.1479,1.145,1.1482,1.1483,1.1478,1.153,1.1536,1.1578,1.1513,1.1514,1.1515,0,1.1256,1.1277,1.1322,1.1344,1.1354,1.1375,1.1399,1.1419,1.1439,1.1444,1.1461,1.1462,1.149,1.1474,1.1514,1.1494,1.1508,1.1515,1.1517,1.1521,1.1501,1.1535,1.1591,1.1598,1.1524,1.1523,1.1523,0,1.1283,1.1322,1.1355,1.1365,1.1391,1.1407,1.1418,1.1437,1.1452,1.1474,1.1484,1.1508,1.1522,1.1541,1.1549,1.1535,1.1589,1.1572,1.1595,1.1595,1.1606,1.1605,1.1666,1.1614,1.1614,1.1614,1.1613,0,1.1325,1.1352,1.1367,1.1387,1.1419,1.1426,1.1458,1.1468,1.1486,1.1509,1.1509,1.153,1.1539,1.1562,1.1568,1.1602,1.1608,1.1613,1.1615,1.1614,1.1613,1.1623,1.162,1.1615,1.1615,1.1615,1.1614,0,1.1359,1.137,1.1406,1.1429,1.1435,1.1458,1.1477,1.1497,1.1507,1.1536,1.1543,1.1558,1.1585,1.1595,1.1628,1.1632,1.1672,1.167,1.1665,1.1666,1.1688,1.1687,1.1758,1.1768,1.1708,1.1709,1.1709,0,1.1385,1.1407,1.1433,1.1448,1.1461,1.1486,1.1502,1.1511,1.1528,1.1554,1.1571,1.1599,1.1621,1.1666,1.1679,1.1705,1.1705,1.1728,1.1709,1.1708,1.1707,1.1706,1.1709,1.1732,1.1732,1.1733,1.1733,0,1.1431,1.1436,1.146,1.1486,1.1506,1.1527,1.1547,1.156,1.1572,1.1592,1.162,1.1638,1.1673,1.1701,1.1728,1.174,1.174,1.174,1.1746,1.1746,1.1743,1.1746,1.1676,1.1738,1.1737,1.1737,1.1737,1.1737,1.1463,1.1483,1.1505,1.1532,1.1549,1.1569,1.1589,1.1602,1.1627,1.1656,1.166,1.1692,1.1713,1.175,1.1764,1.1789,1.1782,1.1792,1.1794,1.1797,1.1799,1.1738,1.1793,1.1793,1.1793,1.1793,1.1793,0,1.151,1.1525,1.155,1.1579,1.1601,1.1599,1.1622,1.1641,1.1669,1.1689,1.1712,1.1747,1.1774,1.1791,1.182,1.1837,1.1837,1.1844,1.1843,1.1846,1.1803,1.1795,1.1843,1.1843,1.1843,1.1843,1.1843,1.1843,1.1537,1.1572,1.158,1.1624,1.1638,1.167,1.1684,1.1702,1.1719,1.1758,1.1781,1.1793,1.1812,1.1842,1.1868,1.1873,1.1884,1.1891,1.1895,1.1854,1.1849,1.1844,1.1836,1.1893,1.1893,1.1937,1.1937,1.1937]}]]